Location: Unspecified
(47.4992°N, 121.7766°W)
Time: 16:54:04
(UTC-07:00)

Okean 3 - Pass Details

Date: 10 August 2024
Orbit: 557 x 581 km, 82.5° (Epoch: 08 September)

Event Time Altitude Azimuth Distance (km) Brightness Sun altitude
Rises 01:13:07 0° 9° (N) 2,757 8.2 -27.1°
Reaches altitude 10° 01:16:51 10° 45° (NE) 1,852 6.5 -27.1°
Maximum altitude 01:18:09 11° 64° (ENE) 1,768 6.2 -27.1°
Enters shadow 01:19:12 10° 79° (E) 1,819 6.1 -27.1°
